,,Stat6,,Stat2,,Stat8,,Stat9,,Stat10,,Wind1,,Wind1,
time,status,PA1M_AVG,status,PR1M_SUM,status,RH1M_AVG,status,SR1M_AVG,status,TA1M_AVG,status,W1dAve1m,status,W1sAve1m,
2007-12-14, 00:00:00,VALID,915.038,VALID,0,VALID,100,VALID,0,VALID,19.8376,VALID,65,VALID,0,
2007-12-14, 00:01:00,VALID,915.039,VALID,0,VALID,100,VALID,0.0169808,VALID,19.8503,VALID,65,VALID,0,
2007-12-14, 00:02:00,VALID,915.024,VALID,0,VALID,100,VALID,0.0679233,VALID,19.8535,VALID,65,VALID,0,
2007-12-14, 00:03:00,VALID,915.028,VALID,0,VALID,100,VALID,0.0169808,VALID,19.8503,VALID,65,VALID,0,
2007-12-14, 00:04:00,VALID,915.019,VALID,0,VALID,100,VALID,0.0339617,VALID,19.8308,VALID,65,VALID,0,
2007-12-14, 00:05:00,VALID,915.011,VALID,0,VALID,100,VALID,0,VALID,19.8181,VALID,65,VALID,0,
2007-12-14, 00:06:00,VALID,914.995,VALID,0,VALID,100,VALID,0.0169808,VALID,19.8179,VALID,65,VALID,0,
2007-12-14, 00:07:00,VALID,914.986,VALID,0,VALID,100,VALID,0.0509425,VALID,19.8079,VALID,65,VALID,0,
2007-12-14, 00:08:00,VALID,914.985,VALID,0,VALID,100,VALID,0,VALID,19.8049,VALID,65,VALID,0,
2007-12-14, 00:09:00,VALID,914.962,VALID,0,VALID,100,VALID,0.0169808,VALID,19.7884,VALID,65,VALID,0,
2007-12-14, 00:10:00,VALID,914.969,VALID,0,VALID,100,VALID,0.0339617,VALID,19.8081,VALID,67,VALID,0,
2007-12-14, 00:11:00,VALID,914.958,VALID,0,VALID,100,VALID,0,VALID,19.8114,VALID,80,VALID,0,
2007-12-14, 00:12:00,VALID,914.958,VALID,0,VALID,100,VALID,-0.0509425,VALID,19.8321,VALID,97,VALID,0.123884,
2007-12-14, 00:13:00,VALID,914.94,VALID,0,VALID,100,VALID,-0.101885,VALID,19.8393,VALID,127,VALID,0.315451,
2007-12-14, 00:14:00,VALID,914.935,VALID,0,VALID,100,VALID,-0.0849042,VALID,19.8391,VALID,127,VALID,0.272866,
2007-12-14, 00:15:00,VALID,914.927,VALID,0,VALID,100,VALID,-0.101885,VALID,19.8388,VALID,127,VALID,0.101563,
2007-12-14, 00:16:00,VALID,914.933,VALID,0,VALID,100,VALID,-0.101885,VALID,19.855,VALID,127,VALID,0.00571646,
2007-12-14, 00:17:00,VALID,914.929,VALID,0,VALID,100,VALID,-0.118866,VALID,19.855,VALID,127,VALID,0,
2007-12-14, 00:18:00,VALID,914.915,VALID,0,VALID,100,VALID,-0.135847,VALID,19.8715,VALID,127,VALID,0,
2007-12-14, 00:19:00,VALID,914.907,VALID,0,VALID,100,VALID,-0.0679233,VALID,19.8745,VALID,127,VALID,0,
2007-12-14, 00:20:00,VALID,914.895,VALID,0,VALID,100,VALID,-0.101885,VALID,19.8745,VALID,127,VALID,0,
2007-12-14, 00:21:00,VALID,914.891,VALID,0,VALID,100,VALID,-0.101885,VALID,19.8877,VALID,127,VALID,0,
2007-12-14, 00:22:00,VALID,914.885,VALID,0,VALID,100,VALID,-0.101885,VALID,19.8977,VALID,127,VALID,0,
2007-12-14, 00:23:00,VALID,914.885,VALID,0,VALID,100,VALID,-0.101885,VALID,19.894,VALID,127,VALID,0,
2007-12-14, 00:24:00,VALID,914.874,VALID,0,VALID,100,VALID,-0.101885,VALID,19.9102,VALID,127,VALID,0,
2007-12-14, 00:25:00,VALID,914.869,VALID,0,VALID,100,VALID,-0.101885,VALID,19.9135,VALID,127,VALID,0,
2007-12-14, 00:26:00,VALID,914.867,VALID,0,VALID,100,VALID,-0.101885,VALID,19.9167,VALID,127,VALID,0,
2007-12-14, 00:27:00,VALID,914.853,VALID,0,VALID,100,VALID,-0.0169808,VALID,19.9257,VALID,127,VALID,0,
2007-12-14, 00:28:00,VALID,914.852,VALID,0,VALID,100,VALID,0.0169808,VALID,19.9087,VALID,127,VALID,0,
2007-12-14, 00:29:00,VALID,914.841,VALID,0,VALID,100,VALID,0.0169808,VALID,19.9055,VALID,127,VALID,0,
2007-12-14, 00:30:00,VALID,914.816,VALID,0,VALID,100,VALID,0.0509425,VALID,19.9152,VALID,127,VALID,0,
2007-12-14, 00:31:00,VALID,914.811,VALID,0,VALID,100,VALID,0.0339617,VALID,19.9119,VALID,128,VALID,0,
2007-12-14, 00:32:00,VALID,914.798,VALID,0,VALID,100,VALID,0,VALID,19.9114,VALID,128,VALID,0,
2007-12-14, 00:33:00,VALID,914.781,VALID,0,VALID,100,VALID,0.0339617,VALID,19.9312,VALID,128,VALID,0.245844,
2007-12-14, 00:34:00,VALID,914.78,VALID,0,VALID,100,VALID,0,VALID,19.9217,VALID,154,VALID,0.602471,
2007-12-14, 00:35:00,VALID,914.765,VALID,0,VALID,100,VALID,0.0169808,VALID,19.8957,VALID,158,VALID,0.495536,
2007-12-14, 00:36:00,VALID,914.757,VALID,0,VALID,100,VALID,0.0169808,VALID,19.8862,VALID,158,VALID,0.271484,
2007-12-14, 00:37:00,VALID,914.754,VALID,0,VALID,100,VALID,0.0339617,VALID,19.8763,VALID,158,VALID,0.233487,
2007-12-14, 00:38:00,VALID,914.747,VALID,0,VALID,100,VALID,0.0339617,VALID,19.8763,VALID,158,VALID,0.0177557,
2007-12-14, 00:39:00,VALID,914.744,VALID,0,VALID,100,VALID,-0.0169808,VALID,19.8698,VALID,158,VALID,0,
2007-12-14, 00:40:00,VALID,914.746,VALID,0,VALID,100,VALID,0.0169808,VALID,19.8665,VALID,158,VALID,0,
2007-12-14, 00:41:00,VALID,914.745,VALID,0,VALID,100,VALID,0.0339617,VALID,19.8725,VALID,158,VALID,0,
2007-12-14, 00:42:00,VALID,914.735,VALID,0,VALID,100,VALID,-0.0849042,VALID,19.8708,VALID,158,VALID,0,
2007-12-14, 00:43:00,VALID,914.722,VALID,0,VALID,100,VALID,-0.101885,VALID,19.881,VALID,158,VALID,0,
2007-12-14, 00:44:00,VALID,914.709,VALID,0,VALID,100,VALID,-0.0849042,VALID,19.891,VALID,158,VALID,0,
2007-12-14, 00:45:00,VALID,914.697,VALID,0,VALID,100,VALID,-0.0679233,VALID,19.8843,VALID,158,VALID,0,
2007-12-14, 00:46:00,VALID,914.677,VALID,0,VALID,100,VALID,-0.101885,VALID,19.8937,VALID,158,VALID,0,
2007-12-14, 00:47:00,VALID,914.661,VALID,0,VALID,100,VALID,-0.0849042,VALID,19.9067,VALID,158,VALID,0,
2007-12-14, 00:48:00,VALID,914.645,VALID,0,VALID,100,VALID,-0.0849042,VALID,19.9067,VALID,158,VALID,0.031851,
2007-12-14, 00:49:00,VALID,914.646,VALID,0,VALID,100,VALID,-0.101885,VALID,19.897,VALID,158,VALID,0.124112,
2007-12-14, 00:50:00,VALID,914.625,VALID,0,VALID,100,VALID,-0.101885,VALID,19.8845,VALID,158,VALID,0.255774,
2007-12-14, 00:51:00,VALID,914.624,VALID,0,VALID,100,VALID,-0.0509425,VALID,19.8837,VALID,154,VALID,0.424237,
2007-12-14, 00:52:00,VALID,914.614,VALID,0,VALID,100,VALID,-0.101885,VALID,19.874,VALID,153,VALID,0.430078,
2007-12-14, 00:53:00,VALID,914.595,VALID,0,VALID,100,VALID,-0.101885,VALID,19.8813,VALID,153,VALID,0.277083,
2007-12-14, 00:54:00,VALID,914.594,VALID,0,VALID,100,VALID,-0.101885,VALID,19.881,VALID,153,VALID,0,
2007-12-14, 00:55:00,VALID,914.576,VALID,0,VALID,100,VALID,-0.0849042,VALID,19.874,VALID,152,VALID,0.377477,
2007-12-14, 00:56:00,VALID,914.555,VALID,0,VALID,100,VALID,-0.0679233,VALID,19.8713,VALID,151,VALID,0.452195,
2007-12-14, 00:57:00,VALID,914.554,VALID,0,VALID,100,VALID,-0.0509425,VALID,19.8615,VALID,144,VALID,0.627976,
2007-12-14, 00:58:00,VALID,914.549,VALID,0,VALID,100,VALID,-0.0169808,VALID,19.8745,VALID,143,VALID,0.570694,
2007-12-14, 00:59:00,VALID,914.535,VALID,0,VALID,100,VALID,-0.0339617,VALID,19.8481,VALID,130,VALID,0.779154,
2007-12-14, 01:00:00,VALID,914.522,VALID,0,VALID,100,VALID,-0.0339617,VALID,19.8388,VALID,127,VALID,0.790396,
2007-12-14, 01:01:00,VALID,914.502,VALID,0,VALID,100,VALID,-0.0509425,VALID,19.8356,VALID,127,VALID,0.514717,
2007-12-14, 01:02:00,VALID,914.494,VALID,0.2,VALID,100,VALID,0,VALID,19.8353,VALID,130,VALID,0.172061,
2007-12-14, 01:03:00,VALID,914.481,VALID,0,VALID,100,VALID,0,VALID,19.8291,VALID,137,VALID,0.530729,
2007-12-14, 01:04:00,VALID,914.468,VALID,0,VALID,100,VALID,0,VALID,19.8251,VALID,138,VALID,0.775586,
2007-12-14, 01:05:00,VALID,914.439,VALID,0,VALID,100,VALID,-0.0509425,VALID,19.8291,VALID,137,VALID,0.462209,
2007-12-14, 01:06:00,VALID,914.426,VALID,0,VALID,100,VALID,0,VALID,19.8291,VALID,137,VALID,0.454144,
2007-12-14, 01:07:00,VALID,914.405,VALID,0,VALID,100,VALID,-0.0509425,VALID,19.8291,VALID,138,VALID,0.152344,
2007-12-14, 01:08:00,VALID,914.401,VALID,0,VALID,100,VALID,-0.0509425,VALID,19.8356,VALID,143,VALID,0.544271,
2007-12-14, 01:09:00,VALID,914.365,VALID,0,VALID,100,VALID,-0.0509425,VALID,19.8291,VALID,154,VALID,0.294085,
2007-12-14, 01:10:00,VALID,914.352,VALID,0,VALID,100,VALID,0,VALID,19.8321,VALID,160,VALID,0.440407,
2007-12-14, 01:11:00,VALID,914.34,VALID,0,VALID,100,VALID,-0.0339617,VALID,19.8388,VALID,150,VALID,0.538517,
2007-12-14, 01:12:00,VALID,914.331,VALID,0,VALID,100,VALID,0,VALID,19.8246,VALID,141,VALID,0.502858,
2007-12-14, 01:13:00,VALID,914.316,VALID,0,VALID,100,VALID,0.101885,VALID,19.8213,VALID,143,VALID,0.639323,
2007-12-14, 01:14:00,VALID,914.311,VALID,0,VALID,100,VALID,0.0849042,VALID,19.8181,VALID,143,VALID,0.204241,
2007-12-14, 01:15:00,VALID,914.299,VALID,0,VALID,100,VALID,0.0679233,VALID,19.8116,VALID,146,VALID,0.0199033,
2007-12-14, 01:16:00,VALID,914.287,VALID,0,VALID,100,VALID,0.0679233,VALID,19.8213,VALID,163,VALID,0.206287,
2007-12-14, 01:17:00,VALID,914.278,VALID,0,VALID,100,VALID,0.0679233,VALID,19.8074,VALID,162,VALID,0.894626,
2007-12-14, 01:18:00,VALID,914.279,VALID,0,VALID,100,VALID,0.0679233,VALID,19.8111,VALID,148,VALID,0.570668,
2007-12-14, 01:19:00,VALID,914.289,VALID,0,VALID,100,VALID,0.0679233,VALID,19.7979,VALID,150,VALID,0.453852,
2007-12-14, 01:20:00,VALID,914.278,VALID,0,VALID,100,VALID,0.101885,VALID,19.8014,VALID,147,VALID,0.465511,
2007-12-14, 01:21:00,VALID,914.273,VALID,0,VALID,100,VALID,0.0849042,VALID,19.7951,VALID,155,VALID,0.688262,
2007-12-14, 01:22:00,VALID,914.259,VALID,0,VALID,100,VALID,0.0849042,VALID,19.7852,VALID,150,VALID,0.967152,
2007-12-14, 01:23:00,VALID,914.259,VALID,0,VALID,100,VALID,0.0509425,VALID,19.7822,VALID,156,VALID,0.80878,
2007-12-14, 01:24:00,VALID,914.243,VALID,0,VALID,100,VALID,0.0849042,VALID,19.7757,VALID,154,VALID,0.720385,
2007-12-14, 01:25:00,VALID,914.224,VALID,0,VALID,100,VALID,0.0509425,VALID,19.7687,VALID,153,VALID,0.657366,
2007-12-14, 01:26:00,VALID,914.212,VALID,0,VALID,100,VALID,0.0849042,VALID,19.7757,VALID,144,VALID,0.249637,
2007-12-14, 01:27:00,VALID,914.195,VALID,0,VALID,100,VALID,-0.0169808,VALID,19.7769,VALID,140,VALID,0.188453,
2007-12-14, 01:28:00,VALID,914.19,VALID,0,VALID,100,VALID,-0.0169808,VALID,19.7704,VALID,140,VALID,0.106399,
2007-12-14, 01:29:00,VALID,914.165,VALID,0.2,VALID,100,VALID,-0.0169808,VALID,19.7737,VALID,141,VALID,0.472929,
2007-12-14, 01:30:00,VALID,914.162,VALID,0,VALID,100,VALID,-0.0169808,VALID,19.7605,VALID,142,VALID,0.404797,
2007-12-14, 01:31:00,VALID,914.152,VALID,0,VALID,100,VALID,-0.0339617,VALID,19.7804,VALID,142,VALID,0.0753348,
2007-12-14, 01:32:00,VALID,914.155,VALID,0,VALID,100,VALID,-0.0509425,VALID,19.7607,VALID,142,VALID,0.149891,
2007-12-14, 01:33:00,VALID,914.156,VALID,0,VALID,100,VALID,-0.0509425,VALID,19.7607,VALID,142,VALID,0.202943,
2007-12-14, 01:34:00,VALID,914.161,VALID,0,VALID,100,VALID,-0.0339617,VALID,19.7642,VALID,141,VALID,0.172828,
2007-12-14, 01:35:00,VALID,914.156,VALID,0,VALID,100,VALID,-0.0169808,VALID,19.748,VALID,138,VALID,0.413368,
2007-12-14, 01:36:00,VALID,914.14,VALID,0,VALID,100,VALID,-0.0339617,VALID,19.7318,VALID,136,VALID,0,
2007-12-14, 01:37:00,VALID,914.142,VALID,0,VALID,100,VALID,-0.0339617,VALID,19.7153,VALID,134,VALID,0,
2007-12-14, 01:38:00,VALID,914.127,VALID,0,VALID,100,VALID,-0.0339617,VALID,19.7188,VALID,134,VALID,0,
2007-12-14, 01:39:00,VALID,914.112,VALID,0,VALID,100,VALID,-0.0339617,VALID,19.7153,VALID,134,VALID,0,
2007-12-14, 01:40:00,VALID,914.098,VALID,0,VALID,100,VALID,0,VALID,19.7185,VALID,134,VALID,0,
2007-12-14, 01:41:00,VALID,914.085,VALID,0,VALID,100,VALID,-0.0169808,VALID,19.7318,VALID,134,VALID,0,
2007-12-14, 01:42:00,VALID,914.06,VALID,0.2,VALID,100,VALID,-0.0169808,VALID,19.7412,VALID,134,VALID,0,
2007-12-14, 01:43:00,VALID,914.061,VALID,0,VALID,100,VALID,0,VALID,19.7445,VALID,134,VALID,0,
2007-12-14, 01:44:00,VALID,914.056,VALID,0,VALID,100,VALID,-0.0339617,VALID,19.7542,VALID,134,VALID,0,
2007-12-14, 01:45:00,VALID,914.044,VALID,0,VALID,100,VALID,-0.0169808,VALID,19.7639,VALID,134,VALID,0,
2007-12-14, 01:46:00,VALID,914.035,VALID,0,VALID,100,VALID,-0.0169808,VALID,19.7607,VALID,134,VALID,0,
2007-12-14, 01:47:00,VALID,914.018,VALID,0,VALID,100,VALID,0,VALID,19.761,VALID,134,VALID,0,
2007-12-14, 01:48:00,VALID,914.008,VALID,0,VALID,100,VALID,0,VALID,19.7642,VALID,134,VALID,0,
2007-12-14, 01:49:00,VALID,913.991,VALID,0,VALID,100,VALID,-0.0169808,VALID,19.7704,VALID,134,VALID,0,
2007-12-14, 01:50:00,VALID,913.984,VALID,0,VALID,100,VALID,-0.0339617,VALID,19.7739,VALID,134,VALID,0,
2007-12-14, 01:51:00,VALID,913.989,VALID,0,VALID,100,VALID,-0.0169808,VALID,19.7734,VALID,134,VALID,0,
2007-12-14, 01:52:00,VALID,913.971,VALID,0,VALID,100,VALID,0,VALID,19.7804,VALID,134,VALID,0,
2007-12-14, 01:53:00,VALID,913.965,VALID,0,VALID,100,VALID,-0.0169808,VALID,19.7804,VALID,134,VALID,0,
2007-12-14, 01:54:00,VALID,913.945,VALID,0,VALID,100,VALID,-0.0509425,VALID,19.7936,VALID,134,VALID,0,
2007-12-14, 01:55:00,VALID,913.931,VALID,0,VALID,100,VALID,-0.0339617,VALID,19.7832,VALID,134,VALID,0,
2007-12-14, 01:56:00,VALID,913.916,VALID,0,VALID,100,VALID,-0.0509425,VALID,19.7961,VALID,134,VALID,0,
2007-12-14, 01:57:00,VALID,913.9,VALID,0,VALID,100,VALID,-0.0679233,VALID,19.8024,VALID,134,VALID,0,
2007-12-14, 01:58:00,VALID,913.888,VALID,0,VALID,100,VALID,-0.0169808,VALID,19.8056,VALID,134,VALID,0,
2007-12-14, 01:59:00,VALID,913.869,VALID,0,VALID,100,VALID,-0.0169808,VALID,19.8056,VALID,134,VALID,0,
2007-12-14, 02:00:00,VALID,913.864,VALID,0,VALID,100,VALID,-0.0679233,VALID,19.8094,VALID,134,VALID,0,
2007-12-14, 02:01:00,VALID,913.849,VALID,0,VALID,100,VALID,-0.0679233,VALID,19.8061,VALID,134,VALID,0,
2007-12-14, 02:02:00,VALID,913.828,VALID,0,VALID,100,VALID,-0.0339617,VALID,19.8096,VALID,134,VALID,0,
2007-12-14, 02:03:00,VALID,913.81,VALID,0,VALID,100,VALID,-0.0509425,VALID,19.7931,VALID,134,VALID,0,
2007-12-14, 02:04:00,VALID,913.8,VALID,0,VALID,100,VALID,-0.0509425,VALID,19.7862,VALID,134,VALID,0,
2007-12-14, 02:05:00,VALID,913.773,VALID,0,VALID,100,VALID,-0.0509425,VALID,19.7864,VALID,134,VALID,0,
2007-12-14, 02:06:00,VALID,913.754,VALID,0,VALID,100,VALID,-0.0509425,VALID,19.7931,VALID,134,VALID,0,
2007-12-14, 02:07:00,VALID,913.749,VALID,0,VALID,100,VALID,-0.0849042,VALID,19.7966,VALID,134,VALID,0,
2007-12-14, 02:08:00,VALID,913.73,VALID,0,VALID,100,VALID,-0.0849042,VALID,19.8001,VALID,134,VALID,0,
2007-12-14, 02:09:00,VALID,913.725,VALID,0,VALID,100,VALID,-0.0679233,VALID,19.7934,VALID,134,VALID,0,
2007-12-14, 02:10:00,VALID,913.699,VALID,0,VALID,100,VALID,-0.0509425,VALID,19.7894,VALID,134,VALID,0,
2007-12-14, 02:11:00,VALID,913.683,VALID,0,VALID,100,VALID,-0.0679233,VALID,19.8026,VALID,134,VALID,0,
2007-12-14, 02:12:00,VALID,913.673,VALID,0,VALID,100,VALID,-0.0339617,VALID,19.7996,VALID,134,VALID,0,
2007-12-14, 02:13:00,VALID,913.652,VALID,0,VALID,100,VALID,-0.0509425,VALID,19.7859,VALID,134,VALID,0,
2007-12-14, 02:14:00,VALID,913.63,VALID,0,VALID,100,VALID,-0.0509425,VALID,19.8026,VALID,134,VALID,0,
2007-12-14, 02:15:00,VALID,913.623,VALID,0,VALID,100,VALID,0,VALID,19.7894,VALID,134,VALID,0,
2007-12-14, 02:16:00,VALID,913.605,VALID,0,VALID,100,VALID,-0.0679233,VALID,19.7827,VALID,134,VALID,0,
2007-12-14, 02:17:00,VALID,913.609,VALID,0,VALID,100,VALID,-0.0849042,VALID,19.7699,VALID,134,VALID,0,
2007-12-14, 02:18:00,VALID,913.584,VALID,0,VALID,100,VALID,-0.0679233,VALID,19.7832,VALID,134,VALID,0,
2007-12-14, 02:19:00,VALID,913.586,VALID,0,VALID,100,VALID,-0.0679233,VALID,19.7867,VALID,134,VALID,0,
2007-12-14, 02:20:00,VALID,913.576,VALID,0,VALID,100,VALID,-0.0849042,VALID,19.7769,VALID,134,VALID,0,
2007-12-14, 02:21:00,VALID,913.568,VALID,0,VALID,100,VALID,-0.0679233,VALID,19.761,VALID,134,VALID,0,
2007-12-14, 02:22:00,VALID,913.563,VALID,0,VALID,100,VALID,-0.0679233,VALID,19.7512,VALID,134,VALID,0,
2007-12-14, 02:23:00,VALID,913.564,VALID,0,VALID,100,VALID,-0.0509425,VALID,19.7542,VALID,134,VALID,0,
2007-12-14, 02:24:00,VALID,913.555,VALID,0,VALID,100,VALID,-0.0849042,VALID,19.7709,VALID,134,VALID,0,
2007-12-14, 02:25:00,VALID,913.544,VALID,0,VALID,100,VALID,-0.0679233,VALID,19.7545,VALID,134,VALID,0,
2007-12-14, 02:26:00,VALID,913.544,VALID,0,VALID,100,VALID,-0.0679233,VALID,19.7642,VALID,134,VALID,0,
2007-12-14, 02:27:00,VALID,913.547,VALID,0,VALID,100,VALID,-0.0339617,VALID,19.7834,VALID,134,VALID,0,
2007-12-14, 02:28:00,VALID,913.535,VALID,0,VALID,100,VALID,-0.0509425,VALID,19.7966,VALID,134,VALID,0,
2007-12-14, 02:29:00,VALID,913.533,VALID,0,VALID,100,VALID,-0.0509425,VALID,19.8056,VALID,134,VALID,0,
2007-12-14, 02:30:00,VALID,913.538,VALID,0,VALID,100,VALID,-0.101885,VALID,19.8026,VALID,134,VALID,0,
2007-12-14, 02:31:00,VALID,913.526,VALID,0,VALID,100,VALID,-0.0679233,VALID,19.8154,VALID,134,VALID,0,
2007-12-14, 02:32:00,VALID,913.521,VALID,0,VALID,100,VALID,-0.0509425,VALID,19.8351,VALID,134,VALID,0,
2007-12-14, 02:33:00,VALID,913.52,VALID,0.2,VALID,100,VALID,-0.0509425,VALID,19.8311,VALID,134,VALID,0,
2007-12-14, 02:34:00,VALID,913.521,VALID,0,VALID,100,VALID,-0.0849042,VALID,19.8221,VALID,134,VALID,0,
2007-12-14, 02:35:00,VALID,913.519,VALID,0,VALID,100,VALID,-0.101885,VALID,19.8161,VALID,134,VALID,0,
2007-12-14, 02:36:00,VALID,913.515,VALID,0,VALID,100,VALID,-0.0849042,VALID,19.8191,VALID,134,VALID,0,
2007-12-14, 02:37:00,VALID,913.513,VALID,0,VALID,100,VALID,-0.0339617,VALID,19.8159,VALID,134,VALID,0,
2007-12-14, 02:38:00,VALID,913.518,VALID,0,VALID,100,VALID,-0.0339617,VALID,19.8054,VALID,134,VALID,0,
2007-12-14, 02:39:00,VALID,913.513,VALID,0,VALID,100,VALID,0,VALID,19.8121,VALID,134,VALID,0,
2007-12-14, 02:40:00,VALID,913.51,VALID,0,VALID,100,VALID,-0.0169808,VALID,19.8154,VALID,134,VALID,0,
2007-12-14, 02:41:00,VALID,913.502,VALID,0,VALID,100,VALID,-0.0169808,VALID,19.8151,VALID,134,VALID,0,
2007-12-14, 02:42:00,VALID,913.496,VALID,0,VALID,100,VALID,-0.0509425,VALID,19.8218,VALID,134,VALID,0,
2007-12-14, 02:43:00,VALID,913.483,VALID,0,VALID,100,VALID,-0.0339617,VALID,19.8253,VALID,134,VALID,0,
2007-12-14, 02:44:00,VALID,913.478,VALID,0,VALID,100,VALID,-0.0339617,VALID,19.8343,VALID,134,VALID,0,
2007-12-14, 02:45:00,VALID,913.473,VALID,0,VALID,100,VALID,-0.0339617,VALID,19.8376,VALID,134,VALID,0,
2007-12-14, 02:46:00,VALID,913.449,VALID,0,VALID,100,VALID,0,VALID,19.8446,VALID,134,VALID,0,
2007-12-14, 02:47:00,VALID,913.429,VALID,0,VALID,100,VALID,-0.0849042,VALID,19.8516,VALID,134,VALID,0,
2007-12-14, 02:48:00,VALID,913.404,VALID,0,VALID,100,VALID,-0.0169808,VALID,19.8538,VALID,134,VALID,0,
2007-12-14, 02:49:00,VALID,913.373,VALID,0,VALID,100,VALID,-0.0169808,VALID,19.8738,VALID,134,VALID,0,
2007-12-14, 02:50:00,VALID,913.352,VALID,0,VALID,100,VALID,0,VALID,19.8735,VALID,134,VALID,0,
2007-12-14, 02:51:00,VALID,913.341,VALID,0,VALID,100,VALID,-0.0169808,VALID,19.8603,VALID,134,VALID,0,
2007-12-14, 02:52:00,VALID,913.31,VALID,0,VALID,100,VALID,0,VALID,19.8543,VALID,134,VALID,0,
2007-12-14, 02:53:00,VALID,913.292,VALID,0,VALID,100,VALID,-0.0679233,VALID,19.8348,VALID,134,VALID,0,
2007-12-14, 02:54:00,VALID,913.26,VALID,0,VALID,100,VALID,-0.0679233,VALID,19.8223,VALID,134,VALID,0,
2007-12-14, 02:55:00,VALID,913.244,VALID,0,VALID,100,VALID,-0.0509425,VALID,19.7804,VALID,134,VALID,0,
2007-12-14, 02:56:00,VALID,913.228,VALID,0,VALID,100,VALID,-0.0339617,VALID,19.7507,VALID,134,VALID,0,
2007-12-14, 02:57:00,VALID,913.204,VALID,0,VALID,100,VALID,0,VALID,19.74,VALID,134,VALID,0,
2007-12-14, 02:58:00,VALID,913.191,VALID,0,VALID,100,VALID,0,VALID,19.7664,VALID,134,VALID,0,
2007-12-14, 02:59:00,VALID,913.175,VALID,0,VALID,100,VALID,0,VALID,19.7789,VALID,134,VALID,0,
2007-12-14, 03:00:00,VALID,913.152,VALID,0,VALID,100,VALID,-0.0339617,VALID,19.7729,VALID,134,VALID,0,
2007-12-14, 03:01:00,VALID,913.128,VALID,0,VALID,100,VALID,-0.0169808,VALID,19.7627,VALID,134,VALID,0,
2007-12-14, 03:02:00,VALID,913.117,VALID,0,VALID,100,VALID,0,VALID,19.7794,VALID,134,VALID,0,
2007-12-14, 03:03:00,VALID,913.094,VALID,0,VALID,100,VALID,-0.0169808,VALID,19.7724,VALID,134,VALID,0,
2007-12-14, 03:04:00,VALID,913.089,VALID,0,VALID,100,VALID,-0.0169808,VALID,19.7864,VALID,134,VALID,0,
2007-12-14, 03:05:00,VALID,913.062,VALID,0,VALID,100,VALID,0,VALID,19.7854,VALID,134,VALID,0,
2007-12-14, 03:06:00,VALID,913.066,VALID,0,VALID,100,VALID,0,VALID,19.8119,VALID,134,VALID,0,
2007-12-14, 03:07:00,VALID,913.042,VALID,0,VALID,100,VALID,0.0169808,VALID,19.8146,VALID,134,VALID,0,
2007-12-14, 03:08:00,VALID,913.031,VALID,0,VALID,100,VALID,-0.0169808,VALID,19.8056,VALID,134,VALID,0,
2007-12-14, 03:09:00,VALID,913.025,VALID,0,VALID,100,VALID,-0.0169808,VALID,19.7892,VALID,132,VALID,0,
2007-12-14, 03:10:00,VALID,913.019,VALID,0,VALID,100,VALID,0,VALID,19.7929,VALID,82,VALID,0,
2007-12-14, 03:11:00,VALID,913.008,VALID,0,VALID,100,VALID,-0.0169808,VALID,19.7961,VALID,79,VALID,0,
2007-12-14, 03:12:00,VALID,913.004,VALID,0,VALID,100,VALID,0,VALID,19.7894,VALID,73,VALID,0,
2007-12-14, 03:13:00,VALID,912.977,VALID,0,VALID,100,VALID,0,VALID,19.7799,VALID,73,VALID,0,
2007-12-14, 03:14:00,VALID,912.98,VALID,0,VALID,100,VALID,0,VALID,19.7697,VALID,73,VALID,0,
2007-12-14, 03:15:00,VALID,912.971,VALID,0,VALID,100,VALID,0,VALID,19.7797,VALID,73,VALID,0,
2007-12-14, 03:16:00,VALID,912.964,VALID,0,VALID,100,VALID,0,VALID,19.7827,VALID,73,VALID,0,
2007-12-14, 03:17:00,VALID,912.971,VALID,0,VALID,100,VALID,0,VALID,19.7956,VALID,73,VALID,0,
2007-12-14, 03:18:00,VALID,912.95,VALID,0,VALID,100,VALID,0,VALID,19.7989,VALID,73,VALID,0,
2007-12-14, 03:19:00,VALID,912.943,VALID,0,VALID,100,VALID,-0.0169808,VALID,19.7994,VALID,73,VALID,0,
2007-12-14, 03:20:00,VALID,912.961,VALID,0,VALID,100,VALID,0,VALID,19.7959,VALID,73,VALID,0,
2007-12-14, 03:21:00,VALID,912.951,VALID,0,VALID,100,VALID,-0.0169808,VALID,19.7999,VALID,73,VALID,0,
2007-12-14, 03:22:00,VALID,912.97,VALID,0,VALID,100,VALID,0,VALID,19.8029,VALID,73,VALID,0,
2007-12-14, 03:23:00,VALID,912.964,VALID,0,VALID,100,VALID,-0.0509425,VALID,19.8159,VALID,73,VALID,0,
2007-12-14, 03:24:00,VALID,912.965,VALID,0,VALID,100,VALID,0,VALID,19.8356,VALID,73,VALID,0,
2007-12-14, 03:25:00,VALID,912.965,VALID,0,VALID,100,VALID,-0.0849042,VALID,19.8486,VALID,73,VALID,0,
2007-12-14, 03:26:00,VALID,912.962,VALID,0,VALID,100,VALID,-0.0339617,VALID,19.8713,VALID,73,VALID,0,
2007-12-14, 03:27:00,VALID,912.948,VALID,0,VALID,100,VALID,0,VALID,19.9002,VALID,73,VALID,0,
2007-12-14, 03:28:00,VALID,912.959,VALID,0,VALID,100,VALID,-0.0339617,VALID,19.9065,VALID,73,VALID,0,
2007-12-14, 03:29:00,VALID,912.97,VALID,0,VALID,100,VALID,0,VALID,19.8932,VALID,73,VALID,0,
2007-12-14, 03:30:00,VALID,912.961,VALID,0,VALID,100,VALID,-0.0169808,VALID,19.877,VALID,73,VALID,0,
2007-12-14, 03:31:00,VALID,912.954,VALID,0,VALID,100,VALID,-0.0679233,VALID,19.8972,VALID,73,VALID,0,
2007-12-14, 03:32:00,VALID,912.95,VALID,0,VALID,100,VALID,0,VALID,19.903,VALID,73,VALID,0,
2007-12-14, 03:33:00,VALID,912.962,VALID,0,VALID,100,VALID,-0.0509425,VALID,19.9102,VALID,73,VALID,0,
2007-12-14, 03:34:00,VALID,912.943,VALID,0,VALID,100,VALID,-0.0509425,VALID,19.91,VALID,73,VALID,0,
2007-12-14, 03:35:00,VALID,912.941,VALID,0,VALID,100,VALID,-0.0339617,VALID,19.9262,VALID,73,VALID,0,
2007-12-14, 03:36:00,VALID,912.926,VALID,0,VALID,100,VALID,-0.0509425,VALID,19.9294,VALID,73,VALID,0,
2007-12-14, 03:37:00,VALID,912.945,VALID,0,VALID,100,VALID,-0.0169808,VALID,19.9357,VALID,73,VALID,0,
2007-12-14, 03:38:00,VALID,912.936,VALID,0,VALID,100,VALID,0,VALID,19.9384,VALID,73,VALID,0,
2007-12-14, 03:39:00,VALID,912.931,VALID,0,VALID,100,VALID,0.0169808,VALID,19.9451,VALID,73,VALID,0,
2007-12-14, 03:40:00,VALID,912.929,VALID,0,VALID,100,VALID,-0.0679233,VALID,19.9456,VALID,73,VALID,0,
2007-12-14, 03:41:00,VALID,912.933,VALID,0,VALID,100,VALID,-0.0169808,VALID,19.9095,VALID,59,VALID,0,
2007-12-14, 03:42:00,VALID,912.928,VALID,0,VALID,100,VALID,-0.0169808,VALID,19.9035,VALID,42,VALID,0,
2007-12-14, 03:43:00,VALID,912.927,VALID,0,VALID,100,VALID,-0.0169808,VALID,19.9224,VALID,42,VALID,0,
2007-12-14, 03:44:00,VALID,912.938,VALID,0,VALID,100,VALID,-0.0169808,VALID,19.9194,VALID,42,VALID,0,
2007-12-14, 03:45:00,VALID,912.947,VALID,0,VALID,100,VALID,-0.0339617,VALID,19.9164,VALID,42,VALID,0,
2007-12-14, 03:46:00,VALID,912.946,VALID,0,VALID,100,VALID,-0.0509425,VALID,19.9162,VALID,42,VALID,0,
2007-12-14, 03:47:00,VALID,912.942,VALID,0,VALID,100,VALID,-0.0509425,VALID,19.9262,VALID,42,VALID,0,
2007-12-14, 03:48:00,VALID,912.946,VALID,0,VALID,100,VALID,-0.0679233,VALID,19.9264,VALID,31,VALID,0,
2007-12-14, 03:49:00,VALID,912.949,VALID,0,VALID,100,VALID,-0.0339617,VALID,19.9362,VALID,30,VALID,0,